TimePST,TemperatureF,Dew PointF,Humidity,Sea Level PressureIn,VisibilityMPH,Wind Direction,Wind SpeedMPH,Gust SpeedMPH,PrecipitationIn,Events,Conditions,WindDirDegrees,DateUTC
12:53 AM,61.0,48.9,64,29.81,10.0,WSW,11.5,-,N/A,,Clear,250,2013-11-21 08:53:00
1:53 AM,64.0,48.9,58,29.82,10.0,West,9.2,-,N/A,,Clear,280,2013-11-21 09:53:00
2:53 AM,60.1,48.0,64,29.81,10.0,Calm,Calm,-,N/A,,Clear,0,2013-11-21 10:53:00
3:53 AM,57.9,48.0,70,29.81,10.0,SSE,4.6,-,N/A,,Clear,150,2013-11-21 11:53:00
4:53 AM,59.0,48.9,69,29.82,10.0,SE,5.8,-,N/A,,Clear,140,2013-11-21 12:53:00
5:53 AM,57.0,48.9,74,29.84,10.0,SE,6.9,-,N/A,,Clear,130,2013-11-21 13:53:00
6:53 AM,57.9,51.1,78,29.85,10.0,ESE,5.8,-,N/A,,Clear,120,2013-11-21 14:53:00
7:53 AM,63.0,57.9,84,29.86,9.0,SSE,5.8,-,N/A,,Clear,160,2013-11-21 15:53:00
8:53 AM,64.9,59.0,81,29.88,10.0,SE,5.8,-,N/A,,Clear,130,2013-11-21 16:53:00
9:53 AM,68.0,60.1,76,29.86,9.0,SE,4.6,-,N/A,,Clear,130,2013-11-21 17:53:00
10:53 AM,69.1,59.0,70,29.84,8.0,SSE,5.8,-,N/A,,Clear,160,2013-11-21 18:53:00
11:53 AM,71.1,55.9,59,29.83,10.0,SSW,4.6,-,N/A,,Clear,210,2013-11-21 19:53:00
12:53 PM,71.1,55.0,57,29.81,10.0,South,3.5,-,N/A,,Clear,180,2013-11-21 20:53:00
1:53 PM,71.1,52.0,51,29.80,10.0,South,4.6,-,N/A,,Mostly Cloudy,190,2013-11-21 21:53:00
2:53 PM,72.0,50.0,46,29.80,10.0,South,4.6,-,N/A,,Scattered Clouds,170,2013-11-21 22:53:00
3:53 PM,71.1,52.0,51,29.81,10.0,SE,4.6,-,N/A,,Scattered Clouds,130,2013-11-21 23:53:00
4:53 PM,70.0,50.0,49,29.81,10.0,West,5.8,-,N/A,,Overcast,260,2013-11-22 00:53:00
5:53 PM,66.9,51.1,57,29.81,10.0,West,3.5,-,N/A,,Clear,260,2013-11-22 01:53:00
6:53 PM,66.9,48.9,52,29.83,10.0,SE,4.6,-,N/A,,Scattered Clouds,140,2013-11-22 02:53:00
7:53 PM,66.9,48.9,52,29.83,10.0,NNE,4.6,-,N/A,,Mostly Cloudy,30,2013-11-22 03:53:00
8:53 PM,63.0,53.1,70,29.85,10.0,East,9.2,-,N/A,,Overcast,100,2013-11-22 04:53:00
9:53 PM,63.0,51.1,65,29.84,10.0,North,9.2,-,0.00,Rain,Light Rain,10,2013-11-22 05:53:00
10:53 PM,61.0,52.0,72,29.83,10.0,NE,5.8,-,0.00,,Mostly Cloudy,40,2013-11-22 06:53:00
11:53 PM,61.0,52.0,72,29.83,10.0,Calm,Calm,-,N/A,,Clear,0,2013-11-22 07:53:00